Location: Area 52 Observatory
(34.2620°N, 119.2590°W)
Time: 15:24:39
(UTC-07:00)

Hubble Space Telescope - Pass Details

Date: 23 March 2019
Orbit: 537 x 540 km, 28.5° (Epoch: 17 April)

Event Time Altitude Azimuth Distance (km) Brightness Sun altitude
Rises 21:20:47 0° 238° (WSW) 2,673 4.8 -26.9°
Reaches altitude 10° 21:23:16 10° 226° (SW) 1,784 3.7 -27.4°
Enters shadow 21:23:48 13° 221° (SW) 1,615 3.4 -27.5°
